SL-16 R/B

Last updated on Wed Sep 17 2025 00:02:15 GMT+0000 (Coordinated Universal Time)

1 31793U 07029B 25259.51828162 -.00000229 00000+0 -93949-4 0 9999 2 31793 70.9758 178.4951 0002817 268.6972 264.1378 14.14791248940739
UTC large
Height (km)
Speed (km/s)
/
Latitude / Longitude
Inclination (degrees)
Orbital Period (minutes)
Azimuth
Elevation
Range (km)
Doppler Factor

Next 0 passes for location: London (51.5072 / 0.1276)

Sorry there are no passes over London.